www.pogodaiklimat.ru

Погода и климат >> Архив погоды >> Индия >> Гуджарат >> Порбандар


ПОГОДА в Порбандаре

  • Прогноз погоды в Порбандаре
  • Монитор погоды в Порбандаре

АРХИВ ПОГОДЫ в Порбандаре

Время (UTC), дата Ветер
(напр.,м/с)
 
Видим.   Явления Облачность Т
(С)
Тd
(С)
f
(%)
Тe
(С)
Тes
(С)
Комфортность P
(гПа)
Po
(гПа)
Тmin
(С)
Tmax
(С)
R
(мм)
R24
(мм)
S
(см)
06 9.01 СВ 5 4000 м 3/0
[Ci fib]
+25.0 +0.6 20 +24 +28 комфорт 1018.6 1019.0
12 9.01 СВ 3 4000 м 4/0
[Ci fib]
+28.0 +1.8 18 +26 +26 жарко 1014.5 1015.0 +29.0
15 9.01 С 3 4000 м 4/0
[Ci fib]
+21.2 +4.4 33 +21 +21 комфорт 1016.1 1016.0
18 9.01 С 3 4000 м ясно +19.0 +5.0 40 +20 +20 1015.7 1016.0
21 9.01 штиль 0 4000 м ясно +17.0 +4.9 45 +17 +17 1015.5 1016.0
00 10.01 штиль 0 4000 м ясно +14.6 +5.3 54 +14 +14 1014.8 1015.0
03 10.01 штиль 0 2000 м дым 4/0
[Ci fib]
+14.0 +4.5 53 +14 +15 1016.9 1017.0 +12.8
06 10.01 СВ 5 4000 м 5/0
[Ci fib]
+26.6 +4.6 24 +26 +30 жарко 1016.9 1017.0
09 10.01 штиль 0 4000 м 4/0
[Ci fib]
+30.6 +2.2 16 +28 +40 жарко 1013.7 1014.0
12 10.01 З 5 4000 м 4/0
[Ci fib]
+26.0 +12.6 43 +28 +28 жарко 1013.5 1014.0 +31.0
15 10.01 С 3 4000 м 5/0
[Ci fib]
+22.0 +7.9 40 +23 +23 комфорт 1014.9 1015.0
18 10.01 С 3 4000 м ясно +19.6 +6.5 42 +21 +21 комфорт 1014.7 1015.0
21 10.01 С 3 4000 м ясно +18.4 +6.9 47 +19 +19 1014.5 1015.0
00 11.01 штиль 0 4000 м ясно +15.0 +7.8 62 +15 +15 1014.7 1015.0
03 11.01 штиль 0 2000 м мгла 4/0
[Ci fib]
+13.8 +8.2 69 +14 +15 1017.1 1017.0 +12.0
06 11.01 Ю 2 4000 м 4/0
[Ci fib]
+25.6 +15.8 55 +29 +39 душно 1017.1 1017.0
09 11.01 З 3 4000 м 5/0
[Ci fib]
+25.0 +17.3 62 +29 +36 душно 1014.3 1014.0
12 11.01 З 3 4000 м 5/0
[Ci fib]
+24.8 +18.5 68 +29 +30 душно 1013.8 1014.0 +28.4
15 11.01 штиль 0 4000 м 4/0
[Ci fib]
+22.6 +18.5 78 +28 +28 душно 1015.5 1016.0
18 11.01 С 3 2000 м мгла ясно +21.0 +15.7 72 +25 +25 комфорт 1015.2 1015.0
21 11.01 С 2 2000 м мгла ясно +19.6 +15.2 76 +22 +22 комфорт 1014.3 1014.0
00 12.01 С 2 2000 м мгла ясно +19.0 +17.0 88 +21 +21 комфорт 1013.9 1014.0
03 12.01 штиль 0 1000 м дымка {туман} ясно +18.0 +16.7 92 +18 +20 1015.9 1016.0 +17.0
06 12.01 штиль 0 4000 м ясно +25.6 +17.3 60 +30 +44 душно 1016.7 1017.0
09 12.01 З 3 4000 м 4/0
[Ci fib]
+26.8 +16.9 55 +31 +38 душно 1014.1 1014.0
12 12.01 СЗ 6 4000 м 4/0
[Ci fib]
+25.0 +19.1 70 +30 +30 душно 1013.7 1014.0 +27.5
15 12.01 С 3 4000 м ясно +23.0 +17.2 70 +28 +28 душно 1015.3 1015.0
18 12.01 С 3 4000 м ясно +21.0 +16.0 73 +25 +25 комфорт 1015.7 1016.0
21 12.01 С 3 4000 м ясно +19.8 +15.4 76 +22 +22 комфорт 1015.2 1015.0
00 13.01 штиль 0 4000 м ясно +19.0 +16.7 87 +20 +20 1015.2 1015.0
03 13.01 В 3 4000 м мгла ясно +18.8 +14.3 75 +20 +21 1017.5 1018.0 +15.6
06 13.01 СВ 2 4000 м мгла 5/0
[Ci fib]
+27.2 +13.3 42 +29 +39 жарко 1018.2 1018.0
09 13.01 С 4 4000 м 4/4 600 м
[Sc]
+29.0 +10.9 33 +30 +33 жарко 1015.8 1016.0
12 13.01 С 6 4000 м ясно +27.6 +8.1 29 +27 +28 жарко 1015.0 1015.0 +30.1
15 13.01 С 4 4000 м ясно +23.0 +6.7 35 +24 +24 комфорт 1016.9 1017.0
18 13.01 С 3 4000 м ясно +21.0 +6.4 39 +22 +22 комфорт 1017.2 1017.0
21 13.01 С 3 4000 м ясно +19.4 +6.2 42 +20 +20 1017.3 1017.0
00 14.01 СВ 7 4000 м ясно +20.0 +7.6 45 +21 +21 комфорт 1016.5 1017.0
03 14.01 С 3 4000 м дым ясно +18.6 +9.1 54 +19 +20 1018.4 1018.0 +17.0
06 14.01 СВ 7 4000 м дым ясно +25.6 +7.0 31 +26 +29 жарко 1018.8 1019.0
09 14.01 СВ 6 4000 м ясно +29.0 +5.2 22 +28 +31 жарко 1015.7 1016.0
12 14.01 СВ 7 4000 м ясно +29.0 +3.2 19 +27 +27 жарко 1014.5 1015.0 +30.0
15 14.01 С 5 4000 м ясно +23.0 +7.8 38 +24 +24 комфорт 1016.9 1017.0
18 14.01 С 2 4000 м ясно +21.0 +9.0 46 +23 +23 комфорт 1017.4 1017.0
21 14.01 С 3 4000 м ясно +20.0 +9.0 49 +21 +21 комфорт 1016.5 1017.0
00 15.01 СВ 2 4000 м ясно +18.2 +7.1 48 +19 +19 1016.1 1016.0
09 15.01 С 3 4000 м 6/0
[Ci sp]
+30.4 +4.7 20 +29 +36 жарко 1014.7 1015.0
12 15.01 З 4 4000 м 5/0
[Ci fib]
+28.0 +11.7 36 +29 +29 жарко 1013.8 1014.0 +31.1
15 15.01 С 2 4000 м ясно +22.6 +13.7 57 +26 +26 жарко 1015.2 1015.0
18 15.01 штиль 0 4000 м ясно +20.0 +9.0 49 +21 +21 комфорт 1016.0 1016.0
21 15.01 штиль 0 4000 м ясно +19.6 +8.7 49 +20 +20 1015.5 1016.0
00 16.01 С 2 4000 м ясно +14.4 +6.6 59 +14 +14 1015.3 1015.0
03 16.01 штиль 0 2000 м дым 3/0
[Ci fib]
+14.4 +6.6 59 +14 +16 1016.7 1017.0 +12.7

 

Местоположение метеостанции Порбандар (Гуджарат, Индия): широта 21.65 долгота 69.67 высота над уровнем моря 7 м.

В архиве по умолчанию представлена погода в Порбандаре за последнюю неделю. Архивные данные за месяц целиком и за предыдущие месяцы, начиная с января 2011 года, Вы можете получить, выбрав интересующий диапазон дат из раскрывающегося списка и нажав кнопку "Ввод!".


*Определитесь, кто Вы:
робот инопланетянин человек

Внимание! Время в таблицах - всемирное. Для получения местного времени необходимо прибавить поправку, которая равна 5.5 ч.

Смотрите также архив погоды в соседних городах и на ближайших метеорологических станциях:

Погода в Дварке (Гуджарат, Индия) (101 км)
Погода в Охе (Гуджарат, Индия) (108 км)
Погода в Веравале (Гуджарат, Индия) (111 км)
Погода в Раджкоте (Гуджарат, Индия) (135 км)
Погода в Мандви (Гуджарат, Индия) (136 км)
Погода в Амрели (Гуджарат, Индия) (160 км)
Погода в Нью-Кандле (Гуджарат, Индия) (160 км)
Погода в Диу (Даман и Диу, Индия) (166 км)
Погода в Кандле (Гуджарат, Индия) (168 км)
Погода в Бхудже (Гуджарат, Индия) (178 км)

Пояснения к столбцам:

Ветер - указаны скорость ветра в м/с - средняя за 10 мин, порывы в срок и между сроками (в фигурных скобках) и направление, откуда дует ветер: С - северный, СВ - северо-восточный, В - восточный, ЮВ - юго-восточный, Ю - южный, ЮЗ - юго-западный, З - западный, СЗ - северо-западный.
Видимость - горизонтальная дальность видимости в метрах или километрах. При видимости от 1 до 10 км при отсутствии осадков обычно наблюдается дымка, при ухудшении видимости до 1 км и менее - туман. В сухую погоду видимость может ухудшаться дымом, пылью или мглою.
Явления - указаны атмосферные явления, наблюдавшиеся в срок или в последний час перед сроком; фигурными скобками обозначены явления, наблюдавшиеся между сроками (за 1-3 часа до срока); квадратными скобками обозначены град или гололедные отложения с указанием их диаметра в мм.
Облачность - указаны через наклонную черту общая и нижняя облачность в баллах и высота нижней границы облаков в метрах; квадратными скобками обозначены формы облаков: Ci - перистые, Cs - перисто-слоистые, Cc - перисто-кучевые, Ac - высококучевые, As - высокослоистые, Sc - слоисто-кучевые, Ns - слоисто-дождевые, Cu - кучевые, Cb - кучево-дождевые. Подробнее классификацию облаков см. в Атласе облаков (PDF).
T - Температура воздуха - температура, измеренная на высоте 2 м над землей.
Td - Температура точки росы - температура, при понижении до которой содержащийся в воздухе водяной пар достигнет насыщения.
f - Относительная влажность воздуха - влажноcть воздуха, измеренная на высоте 2 м над землей.
Te - Эффективная температура - температура, которую ощущает одетый по сезону человек в тени. Характеристика душности погоды. При расчете учитывается влияние влажности воздуха и скорости ветра на теплоощущения человека.
Tes - Эффективная температура на солнце - температура, которую ощущает человек, с поправкой на солнечный нагрев. Характеристика знойности погоды. Зависит от высоты солнца над горизонтом, облачности и скорости ветра. Ночью, в пасмурную погоду, а также при ветре 12 м/с и более поправка равна нулю.
P - Атмосферное давление - приведенное к уровню моря атмосферное давление.
Po - Атмосферное давление - измеренное на уровне метеостанции атмосферное давление.
Tmin - Минимальная температура - минимум температуры воздуха на высоте 2 м над землей.
Tmax - Максимальная температура - максимум температуры воздуха на высоте 2 м над землей.
R - Количество осадков - Количество выпавших осадков за период времени, мм. При наведении курсора мыши на число - период времени, за который выпало указанное количество осадков.
R24 - Количество осадков - Количество выпавших осадков за 24 часа, мм.
S - Снежный покров - Высота снежного покрова, см. При наведении курсора мыши на число - состояние снежного покрова и степень покрытия местности в баллах.